Change the Weather History Date:

Monday, January 6, 2014

  Actual Average Record
Temperature  
Mean Temperature 24 °F -  
Max Temperature 30 °F 61 °F 79 °F (1989)
Min Temperature 19 °F 38 °F 19 °F (2014)
Degree Days  
Heating Degree Days 40    
Moisture  
Dew Point 9 °F    
Average Humidity 52    
Maximum Humidity 69    
Minimum Humidity 29    
Precipitation  
Precipitation 0.00 in - - ()
Sea Level Pressure  
Sea Level Pressure 30.48 in    
Wind  
Wind Speed 15 mph (NNW)    
Max Wind Speed 23 mph    
Max Gust Speed 31 mph    
Visibility 10 miles    
Events      
Averages and records for this station are not official NWS values.
T = Trace of Precipitation, MM = Missing Value Source: NWS Daily Summary

Daily Weather History Graph

Daily Weather History Graph

Search for Another Location

Airport or City:

Trip Planner

Search our weather history database for the weather conditions in past years. The results will help you decide how hot, cold, wet, or windy it might be!

Date:

Astronomy

Jan. 06, 2014 Rise Set
Actual Time 7:01 AM CST 5:14 PM CST
Civil Twilight 6:34 AM CST 5:40 PM CST
Nautical Twilight 6:04 AM CST 6:11 PM CST
Astronomical Twilight 5:35 AM CST 6:40 PM CST
Moon 10:41 AM CST (1/6) 11:20 PM CST (1/6)
Length of Visible Light 11h 06m
Length of Day
10h 13m
Waxing Crescent, 35% of the Moon is Illuminated
Jan 6
Waxing Crescent
Jan 7
First Quarter
Jan 15
Full
Jan 23
Last Quarter
Jan 30
New

Hourly Weather History & Observations

Time (CST) Temp. Windchill Dew Point Humidity Pressure Visibility Wind Dir Wind Speed Gust Speed Precip Events Conditions
12:53 AM 30.9 °F 19.8 °F 21.9 °F 69% 30.23 in 10.0 mi NNW 16.1 mph 31.1 mph N/A   Overcast
1:53 AM 30.0 °F 16.6 °F 21.0 °F 69% 30.27 in 10.0 mi NNW 23.0 mph 28.8 mph N/A   Overcast
2:53 AM 28.0 °F 14.9 °F 18.0 °F 66% 30.32 in 10.0 mi NNW 19.6 mph 31.1 mph N/A   Overcast
3:53 AM 28.0 °F 16.5 °F 18.0 °F 66% 30.35 in 10.0 mi North 15.0 mph 21.9 mph N/A   Overcast
4:53 AM 27.0 °F 14.3 °F 18.0 °F 69% 30.36 in 10.0 mi North 17.3 mph 24.2 mph N/A   Overcast
5:50 AM 26.6 °F 15.7 °F 15.8 °F 64% 30.38 in 10.0 mi North 12.7 mph - N/A   Scattered Clouds
5:53 AM 25.0 °F 11.7 °F 16.0 °F 69% 30.39 in 10.0 mi North 17.3 mph 23.0 mph N/A   Partly Cloudy
6:53 AM 23.0 °F 8.3 °F 12.9 °F 65% 30.44 in 10.0 mi NNW 19.6 mph 24.2 mph N/A   Clear
7:53 AM 23.0 °F 11.7 °F 10.9 °F 60% 30.49 in 10.0 mi North 11.5 mph - N/A   Clear
8:53 AM 24.1 °F 12.0 °F 6.1 °F 46% 30.53 in 10.0 mi North 13.8 mph 23.0 mph N/A   Clear
9:53 AM 26.1 °F 13.6 °F 6.1 °F 43% 30.56 in 10.0 mi North 16.1 mph 25.3 mph N/A   Clear
10:53 AM 27.0 °F 14.3 °F 3.0 °F 36% 30.54 in 10.0 mi North 17.3 mph 23.0 mph N/A   Clear
11:53 AM 28.0 °F 15.7 °F 3.0 °F 34% 30.52 in 10.0 mi NNW 17.3 mph 25.3 mph N/A   Clear
12:53 PM 28.9 °F 18.6 °F 5.0 °F 36% 30.50 in 10.0 mi NW 12.7 mph - N/A   Clear
1:53 PM 30.9 °F 19.8 °F 5.0 °F 33% 30.50 in 10.0 mi NNW 16.1 mph 27.6 mph N/A   Clear
2:53 PM 28.9 °F 16.5 °F -0.0 °F 29% 30.51 in 10.0 mi North 18.4 mph - N/A   Clear
3:53 PM 27.0 °F 13.5 °F -0.0 °F 31% 30.54 in 10.0 mi NNW 19.6 mph 27.6 mph N/A   Clear
4:53 PM 25.0 °F 13.1 °F 1.0 °F 36% 30.53 in 10.0 mi NNW 13.8 mph - N/A   Clear
5:53 PM 24.1 °F 14.4 °F 3.0 °F 40% 30.56 in 10.0 mi NNW 9.2 mph - N/A   Clear
6:53 PM 24.1 °F 15.2 °F 5.0 °F 44% 30.58 in 10.0 mi NNW 8.1 mph - N/A   Clear
7:53 PM 21.9 °F 17.2 °F 5.0 °F 48% 30.60 in 10.0 mi NNW 3.5 mph - N/A   Clear
8:53 PM 21.0 °F - 7.0 °F 55% 30.61 in 10.0 mi Calm Calm - N/A   Clear
9:53 PM 21.0 °F - 8.1 °F 57% 30.61 in 10.0 mi Calm Calm - N/A   Clear
10:53 PM 19.9 °F 13.4 °F 10.0 °F 65% 30.60 in 10.0 mi North 4.6 mph - N/A   Clear
11:53 PM 19.9 °F 14.9 °F 9.0 °F 62% 30.59 in 10.0 mi NNW 3.5 mph - N/A   Clear